Location: Newark
(16.3678°N, 77.8722°E)
Time: 09:18:22
(UTC+00:00)

S-56A Canister/Altair - Pass Details

Date: 18 December 2019
Orbit: 634 x 2498 km, 38.9° (Epoch: 18 January)

Event Time Altitude Azimuth Distance (km) Brightness Sun altitude
Rises 03:39:49 0° 281° (W) 5,042 11.2 29.8°
Reaches altitude 10° 03:43:28 10° 291° (WNW) 4,312 10.9 30.5°
Maximum altitude 03:53:52 31° 349° (N) 3,481 10.7 32.3°
Drops below altitude 10° 04:06:20 10° 45° (NE) 5,158 11.8 34.5°
Sets 04:11:18 0° 56° (NE) 6,152 12.2 35.4°
